#timestamp,LO_Frequency,Hit 
1502568015.1,286047018.3,N
1502568035.9,286047019.7,N
1502568055.7,286047019.9,N
1502568075.5,286047019.9,N
1502568095.4,286047019.5,N
1502568115.2,286047018.5,N
1502568135.0,286047018.2,N
1502568135.9,286047018.2,N
1502568155.8,286047019.7,P
1502568175.6,286047005.6,N
1502568195.4,286047001.7,N
1502568215.3,286046996.5,N
1502568235.1,286046997.8,N
1502568255.8,286046997.9,N
1502568275.7,286046997.6,N
1502568295.5,286046999.5,N
1502568315.3,286047005.7,N
1502568335.2,286047006.2,N
1502568355.9,286047006.3,N
1502568375.7,286047007.5,N
1502568395.6,286047004.8,N
1502568415.4,286047003.6,N
1502568435.2,286047005.3,N
1502568455.0,286047003.7,N
1502568456.0,286047003.7,N
1502568475.8,286047003.6,N
1502568495.6,286047001.5,N
1502568515.4,286047005.8,N
1502568535.3,286047002.3,N
1502568555.1,286047000.9,N
1502568575.8,286047001.1,N
1502568595.7,286047000.7,N
1502568615.5,286047002.7,N
1502568635.3,286047005.4,N
1502568655.2,286047006.7,N
1502568675.9,286047009.2,N
1502568695.7,286047006.6,N
1502568715.6,286047003.4,N
1502568735.4,286047004.7,N
1502568755.2,286047007.3,N
1502568775.1,286047012.3,P
1502568776.0,286047012.3,N
1502568795.8,286047011.6,N
1502568815.6,286047011.5,P
1502568835.5,286046999.8,N
1502568855.3,286047003.5,N
1502568875.1,286047001.7,N
1502568895.9,286047002.3,N
1502568915.7,286047004.1,N
1502568935.5,286046999.7,N
1502568955.4,286047000.4,N
1502568975.2,286046999.6,N
1502568995.0,286047001.0,N
1502568995.9,286047001.0,N
1502569015.8,286047001.9,N
1502569035.6,286046999.7,N
1502569055.4,286047002.0,N
1502569075.2,286046999.7,N
1502569095.1,286047000.8,N
1502569096.0,286047000.8,N
1502569115.8,286046999.8,N
1502569135.6,286047002.3,N
1502569155.5,286047000.7,N
1502569175.3,286046998.7,N
1502569195.1,286047001.1,N
1502569215.9,286047001.9,N
1502569235.7,286047002.5,N
1502569255.5,286047002.2,N
1502569275.4,286047002.3,N
1502569295.2,286047002.6,N
1502569315.0,286046996.6,N
1502569315.9,286046996.6,N
1502569335.8,286046997.6,N
1502569355.6,286046992.1,P
1502569375.4,286046989.2,N
1502569395.3,286046987.6,N
1502569415.1,286046987.1,N
1502569416.0,286046987.1,N
1502569435.8,286046987.7,N
1502569455.7,286046986.8,N
1502569475.5,286046983.0,P
1502569495.4,286046989.9,N
1502569515.2,286046985.4,P
1502569535.0,286046987.8,P
1502569535.9,286046987.8,P
1502569555.8,286047000.4,N
1502569575.6,286047001.2,N
1502569595.4,286046998.7,N
1502569615.3,286047000.6,N
1502569635.1,286047000.4,N
1502569636.0,286047000.4,N
1502569655.8,286047000.8,N
1502569675.7,286046999.4,N
1502569695.5,286046998.1,N
1502569715.3,286047001.0,N
1502569735.2,286047000.7,N
1502569755.9,286046998.4,N
1502569775.7,286046996.5,N
1502569795.5,286047001.2,N
1502569815.4,286047002.5,N
1502569835.2,286046999.8,N
1502569855.0,286047000.0,N
1502569855.9,286047000.0,N
1502569875.8,286046998.8,N
1502569895.6,286047000.7,N
1502569915.4,286047000.2,N
1502569935.3,286046998.4,N
1502569955.1,286046995.8,N
1502569956.0,286046995.8,N
1502569975.8,286046991.9,N
1502569995.7,286046990.1,N
1502570015.5,286046988.6,N
1502570035.3,286046992.5,N
1502570055.2,286046996.7,N
1502570075.9,286047002.3,N
1502570095.7,286047003.4,N
1502570115.5,286047003.8,N
1502570135.4,286047010.8,N
1502570155.2,286047010.3,N
1502570175.0,286047012.0,N
1502570175.9,286047012.0,N
1502570195.8,286047014.0,N
1502570215.6,286047013.0,N
1502570235.4,286047012.2,N
1502570255.3,286047009.7,N
1502570275.1,286047011.6,N
1502570295.8,286047013.2,N
1502570315.7,286047014.5,N
1502570335.5,286047014.6,N
1502570355.3,286047013.4,N
1502570375.2,286047014.8,N
1502570395.9,286047014.3,N
1502570415.7,286047010.3,N
1502570435.6,286047009.1,N
1502570455.4,286047010.2,N
1502570475.2,286047009.8,N
1502570495.0,286047011.0,N
1502570495.9,286047011.0,N
1502570515.8,286047009.5,N
1502570535.6,286047010.0,N
1502570555.4,286047010.2,N
1502570575.3,286047009.6,N
1502570595.1,286047012.2,N
1502570615.8,286047013.2,P
1502570635.7,286047005.7,P
1502570655.5,286047004.4,N
1502570675.3,286047003.2,N
1502570695.2,286047001.7,N
1502570715.9,286047001.7,N
1502570735.7,286046999.7,N
1502570755.6,286046998.8,N
1502570775.4,286046998.2,N
1502570795.2,286047002.3,N
1502570815.1,286047004.2,N
1502570816.0,286047004.2,N
1502570835.8,286047003.5,N
1502570855.6,286047005.9,N
1502570875.5,286047003.3,N
1502570895.3,286047003.3,N
1502570915.1,286047004.7,N
1502570935.9,286047008.1,N
1502570955.7,286047006.4,N
1502570975.5,286047005.4,N
1502570995.3,286047004.1,N
1502571015.2,286047002.5,N
1502571035.0,286047002.3,N
1502571035.9,286047002.3,N
1502571055.7,286047003.4,N
1502571075.6,286047001.6,N
1502571095.4,286047004.4,N
1502571115.2,286047008.2,N
1502571135.1,286047010.5,P
1502571136.0,286047010.5,P
1502571155.8,286047001.3,N
1502571175.6,286047001.8,N
1502571195.5,286047001.4,N
1502571215.3,286047002.7,N
1502571235.1,286046999.8,N
1502571255.9,286047000.0,N
1502571275.7,286047002.4,N
1502571295.5,286047000.3,N
1502571315.4,286046998.2,N
1502571335.2,286047000.6,N
1502571355.0,286047001.6,N
1502571355.9,286047001.6,N
1502571375.8,286047001.8,N
1502571395.6,286047002.7,N
1502571415.4,286047002.6,N
1502571435.2,286047001.7,N
1502571455.1,286047000.4,N
1502571456.0,286047000.4,N
1502571475.8,286047001.2,N
1502571495.6,286047000.1,N
1502571515.5,286046998.8,N
1502571535.3,286047000.7,N
1502571555.1,286046998.2,N
1502571575.9,286047002.4,N
1502571595.7,286047002.3,N
